Location: Warszawa
(52.2500°N, 21.0000°E)
Time: 23:50:52
(UTC+01:00)

A-11 Canister half - Pass Details

Date: 13 February 2023
Orbit: 1526 x 1682 km, 47.3° (Epoch: 22 March)

Event Time Altitude Azimuth Distance (km) Brightness Sun altitude
Exits shadow 04:27:21 31° 232° (SW) 2,429 9.6 -23.3°
Maximum altitude 04:32:05 60° 166° (SSE) 1,712 9.2 -22.5°
Drops below altitude 10° 04:41:12 10° 89° (E) 3,721 12.2 -21.1°
Sets 04:44:19 0° 86° (E) 4,718 13.2 -20.7°
